• In Hungary
  • List of Countries
  • For 7 days
  • Water Temperature
  • Satellite Maps
  • Weather Map
  • News
  • Weather Widgets
  • user-avatar
    Login

    Hourly Weather Innsbruck

    Today, 20 November, Monday

    Time Temperature Precipitation Wind Pressure Humidity
    00:00 -12°C° 0.1 mm 2 mps 593 mmHg 93%
    01:00 -10°C° 0 mm 2 mps 593 mmHg 93%
    02:00 -12°C° 0 mm 2 mps 593 mmHg 93%
    03:00 -12°C° 0 mm 2 mps 592 mmHg 92%
    04:00 -13°C° 0 mm 2 mps 592 mmHg 92%
    05:00 -13°C° 0 mm 2 mps 592 mmHg 90%
    06:00 -14°C° 0 mm 2 mps 592 mmHg 87%
    07:00 -13°C° 0 mm 3 mps 592 mmHg 87%
    08:00 -10°C° 0 mm 2 mps 593 mmHg 83%
    09:00 -8°C° 0 mm 2 mps 594 mmHg 79%
    10:00 -7°C° 0 mm 2 mps 594 mmHg 76%
    11:00 -4°C° 0 mm 1 mps 595 mmHg 73%
    12:00 -3°C° 0 mm 1 mps 595 mmHg 71%
    13:00 -2°C° 0 mm 1 mps 595 mmHg 68%
    14:00 -3°C° 0.3 mm 1 mps 594 mmHg 74%
    15:00 -3°C° 0.3 mm 1 mps 594 mmHg 80%
    16:00 -4°C° 0.3 mm 1 mps 593 mmHg 86%
    17:00 -6°C° 0.5 mm 2 mps 593 mmHg 87%
    18:00 -6°C° 0.5 mm 2 mps 593 mmHg 88%
    19:00 -6°C° 0.5 mm 2 mps 593 mmHg 88%
    20:00 -6°C° 0.2 mm 2 mps 593 mmHg 88%
    21:00 -6°C° 0.2 mm 2 mps 593 mmHg 87%
    22:00 -6°C° 0.2 mm 2 mps 593 mmHg 86%
    23:00 -6°C° 0.1 mm 2 mps 593 mmHg 86%

    Tomorrow, 21 November, Tuesday

    Time Temperature Precipitation Wind Pressure Humidity
    00:00 -6°C° 0.1 mm 2 mps 593 mmHg 85%
    01:00 -5°C° 0.1 mm 2 mps 593 mmHg 84%
    02:00 -6°C° 0.2 mm 2 mps 593 mmHg 85%
    03:00 -6°C° 0.2 mm 2 mps 593 mmHg 86%
    04:00 -6°C° 0.2 mm 2 mps 593 mmHg 88%
    05:00 -5°C° 0.4 mm 2 mps 593 mmHg 89%
    06:00 -5°C° 0.4 mm 2 mps 593 mmHg 90%
    07:00 -4°C° 0.4 mm 2 mps 594 mmHg 91%
    08:00 -3°C° 0.4 mm 2 mps 594 mmHg 91%
    09:00 -3°C° 0.4 mm 2 mps 595 mmHg 90%
    10:00 -2°C° 0.4 mm 2 mps 595 mmHg 90%
    11:00 -1°C° 0.1 mm 2 mps 595 mmHg 91%
    12:00 -1°C° 0.1 mm 2 mps 595 mmHg 91%
    13:00 +1°C° 0.1 mm 2 mps 595 mmHg 92%
    14:00 +1°C° 0.4 mm 2 mps 595 mmHg 92%
    15:00 -1°C° 0.4 mm 2 mps 595 mmHg 92%
    16:00 +1°C° 0.4 mm 1 mps 595 mmHg 92%
    17:00 -2°C° 0.1 mm 2 mps 594 mmHg 91%
    18:00 -3°C° 0.1 mm 2 mps 594 mmHg 91%
    19:00 -4°C° 0.1 mm 2 mps 594 mmHg 90%
    20:00 -4°C° 0 mm 2 mps 594 mmHg 89%
    21:00 -4°C° 0 mm 2 mps 594 mmHg 88%
    22:00 -2°C° 0 mm 1 mps 594 mmHg 86%
    23:00 -4°C° 0 mm 2 mps 594 mmHg 85%

    Day after tomorrow, 22 November, Wednesday

    Time Temperature Precipitation Wind Pressure Humidity
    00:00 -4°C° 0 mm 2 mps 594 mmHg 83%
    01:00 -4°C° 0 mm 2 mps 594 mmHg 81%
    02:00 -4°C° 0 mm 2 mps 594 mmHg 80%
    03:00 -5°C° 0 mm 2 mps 593 mmHg 79%
    04:00 -5°C° 0 mm 2 mps 593 mmHg 78%
    05:00 -5°C° 0 mm 2 mps 593 mmHg 78%
    06:00 -5°C° 0 mm 2 mps 593 mmHg 77%
    07:00 -5°C° 0 mm 2 mps 593 mmHg 77%
    08:00 -4°C° 0 mm 2 mps 594 mmHg 78%
    09:00 -2°C° 0 mm 2 mps 594 mmHg 79%
    10:00 +1°C° 0 mm 2 mps 595 mmHg 80%
    11:00 +1°C° 0 mm 2 mps 595 mmHg 84%
    12:00 +2°C° 0 mm 2 mps 595 mmHg 87%
    13:00 +3°C° 0 mm 2 mps 595 mmHg 90%
    14:00 +2°C° 0 mm 2 mps 595 mmHg 88%
    15:00 +1°C° 0 mm 2 mps 594 mmHg 86%
    16:00 -1°C° 0 mm 2 mps 594 mmHg 84%
    17:00 -2°C° 0 mm 2 mps 593 mmHg 84%
    18:00 -3°C° 0 mm 2 mps 593 mmHg 84%
    19:00 -5°C° 0 mm 3 mps 593 mmHg 84%
    20:00 -5°C° 0 mm 3 mps 593 mmHg 83%
    21:00 -5°C° 0 mm 3 mps 593 mmHg 83%
    22:00 -5°C° 0 mm 3 mps 593 mmHg 82%
    23:00 -6°C° 0 mm 3 mps 593 mmHg 82%

    23 November, Thursday

    Time Temperature Precipitation Wind Pressure Humidity
    00:00 -6°C° 0 mm 3 mps 593 mmHg 82%
    01:00 -6°C° 0 mm 3 mps 593 mmHg 81%
    02:00 -6°C° 0 mm 3 mps 593 mmHg 81%
    03:00 -5°C° 0 mm 2 mps 593 mmHg 80%
    04:00 -5°C° 0 mm 2 mps 593 mmHg 79%
    05:00 -5°C° 0 mm 2 mps 593 mmHg 77%
    06:00 -5°C° 0 mm 2 mps 593 mmHg 76%
    07:00 -6°C° 0 mm 2 mps 593 mmHg 74%
    08:00 -2°C° 0 mm 1 mps 594 mmHg 74%
    09:00 0°C° 0 mm 1 mps 595 mmHg 74%
    10:00 +2°C° 0 mm 1 mps 596 mmHg 74%
    11:00 +3°C° 0 mm 1 mps 596 mmHg 78%
    12:00 +4°C° 0 mm 1 mps 597 mmHg 81%
    13:00 +4°C° 0 mm 0 mps 597 mmHg 84%
    14:00 +2°C° 0 mm 0 mps 597 mmHg 81%
    15:00 +1°C° 0 mm 0 mps 596 mmHg 77%
    16:00 0°C° 0 mm 0 mps 596 mmHg 73%
    17:00 0°C° 0 mm 1 mps 596 mmHg 73%
    18:00 -1°C° 0 mm 1 mps 596 mmHg 72%
    19:00 -2°C° 0 mm 1 mps 596 mmHg 71%
    20:00 -4°C° 0 mm 2 mps 596 mmHg 71%
    21:00 -4°C° 0 mm 2 mps 596 mmHg 71%
    22:00 -5°C° 0 mm 2 mps 596 mmHg 70%
    23:00 -5°C° 0 mm 2 mps 596 mmHg 71%

    24 November, Friday

    Time Temperature Precipitation Wind Pressure Humidity
    00:00 -5°C° 0 mm 2 mps 596 mmHg 71%
    01:00 -5°C° 0 mm 2 mps 596 mmHg 71%
    02:00 -5°C° 0 mm 2 mps 596 mmHg 71%
    03:00 -5°C° 0 mm 2 mps 596 mmHg 70%
    04:00 -5°C° 0 mm 2 mps 596 mmHg 70%
    05:00 -5°C° 0 mm 2 mps 596 mmHg 70%
    06:00 -5°C° 0 mm 2 mps 596 mmHg 69%
    07:00 -5°C° 0 mm 2 mps 596 mmHg 69%
    08:00 -4°C° 0 mm 2 mps 597 mmHg 69%
    09:00 -2°C° 0 mm 2 mps 597 mmHg 70%
    10:00 -1°C° 0 mm 2 mps 598 mmHg 70%
    11:00 +1°C° 0 mm 2 mps 598 mmHg 72%
    12:00 +2°C° 0 mm 2 mps 598 mmHg 74%
    13:00 +3°C° 0 mm 2 mps 598 mmHg 76%
    14:00 +2°C° 0 mm 2 mps 597 mmHg 75%
    15:00 +1°C° 0 mm 2 mps 597 mmHg 74%
    16:00 -1°C° 0 mm 2 mps 596 mmHg 73%
    17:00 -2°C° 0 mm 2 mps 596 mmHg 71%
    18:00 -3°C° 0 mm 2 mps 596 mmHg 70%
    19:00 -4°C° 0 mm 2 mps 596 mmHg 69%
    20:00 -4°C° 0 mm 2 mps 596 mmHg 69%
    21:00 -3°C° 0 mm 2 mps 596 mmHg 68%
    22:00 -3°C° 0 mm 2 mps 596 mmHg 68%
    23:00 -3°C° 0 mm 2 mps 596 mmHg 68%

    25 November, Saturday

    Time Temperature Precipitation Wind Pressure Humidity
    00:00 -3°C° 0 mm 2 mps 596 mmHg 68%
    01:00 -3°C° 0 mm 2 mps 596 mmHg 68%
    02:00 -3°C° 0 mm 2 mps 596 mmHg 69%
    03:00 -3°C° 0 mm 2 mps 595 mmHg 69%
    04:00 -4°C° 0 mm 3 mps 595 mmHg 70%
    05:00 -5°C° 0 mm 3 mps 595 mmHg 71%
    06:00 -5°C° 0 mm 3 mps 595 mmHg 71%
    07:00 -5°C° 0 mm 3 mps 595 mmHg 72%
    08:00 -3°C° 0 mm 2 mps 595 mmHg 73%
    09:00 -2°C° 0 mm 2 mps 596 mmHg 73%
    10:00 +1°C° 0 mm 2 mps 597 mmHg 74%
    11:00 +2°C° 0 mm 2 mps 597 mmHg 76%
    12:00 +3°C° 0 mm 2 mps 597 mmHg 79%
    13:00 +4°C° 0 mm 2 mps 597 mmHg 82%
    14:00 +3°C° 0 mm 2 mps 596 mmHg 83%
    15:00 +2°C° 0 mm 1 mps 596 mmHg 84%
    16:00 +1°C° 0 mm 1 mps 595 mmHg 85%
    17:00 +1°C° 0 mm 1 mps 595 mmHg 86%
    18:00 -2°C° 0 mm 2 mps 596 mmHg 87%
    19:00 -2°C° 0 mm 2 mps 596 mmHg 88%
    20:00 -2°C° 0 mm 2 mps 596 mmHg 89%
    21:00 -3°C° 0 mm 2 mps 596 mmHg 90%
    22:00 -1°C° 0 mm 1 mps 596 mmHg 91%
    23:00 -1°C° 0.2 mm 1 mps 596 mmHg 92%
    Show more